Location: Lecco
(45.8566°N, 9.3977°E)
Time: 02:51:12
(UTC+02:00)

Transit 4A - Pass Details

Date: 19 August 2020
Orbit: 863 x 982 km, 66.8° (Epoch: 23 September)

Event Time Altitude Azimuth Distance (km) Brightness Sun altitude
Rises 07:04:21 0° 161° (SSE) 3,483 11.0 5.3°
Reaches altitude 10° 07:07:39 10° 143° (SE) 2,570 10.6 5.9°
Maximum altitude 07:11:24 17° 103° (ESE) 2,114 11.2 6.5°
Drops below altitude 10° 07:15:14 10° 64° (ENE) 2,635 12.2 7.2°
Sets 07:18:39 0° 46° (NE) 3,608 12.0 7.7°
